Theta_e
314 318 320 319 320 320 319 323 326 325 323 325 326 325 324 323 322 320 319 317 316 322 322 320 319 316 315 314 313 312 311 313 315 315 315 315 314 313 312 311 312 313 313 314 313 311 309 308 307 306 305 304 305 305 304 304 307 307 303 301 300 299 298 297 297 297 298 297 297 297 297 297 297 296 295 295 296 296 296 295 294 294 295 294 295 295
316 319 319 318 319 318 317 321 328 325 323 324 324 323 322 322 321 319 318 317 316 321 322 320 319 317 316 315 314 313 313 314 315 316 315 315 315 314 313 313 313 315 315 313 312 311 310 309 308 307 305 305 306 307 307 306 305 304 302 301 300 299 299 297 296 297 297 297 296 296 295 295 295 294 294 295 295 295 295 294 295 295 295 294 295 294
318 318 317 317 317 316 319 326 329 325 324 324 323 324 323 321 321 319 318 317 317 321 322 320 320 318 316 315 314 314 314 315 316 316 315 315 315 315 315 315 315 316 315 312 311 311 311 310 309 307 306 308 309 307 307 305 302 301 301 300 300 299 299 298 297 296 296 296 295 294 293 293 293 293 295 295 296 296 295 295 296 296 295 294 294 294
319 317 315 316 317 320 325 329 327 324 325 324 323 324 323 321 323 323 320 318 319 321 322 322 322 319 317 316 315 314 314 315 315 316 315 315 315 315 315 316 315 316 317 315 313 311 311 311 309 307 307 309 310 307 304 303 302 301 301 300 300 299 298 298 298 296 294 294 294 293 293 294 295 296 297 297 297 297 296 296 297 296 295 294 294 293
318 315 314 316 319 323 325 326 325 323 325 326 325 324 322 323 324 322 321 320 320 320 321 323 326 325 320 318 318 316 314 315 315 315 316 315 315 315 315 317 317 317 319 320 317 312 310 311 310 308 307 307 308 306 304 303 302 301 300 300 300 299 298 298 297 296 294 293 294 295 295 295 297 298 298 298 297 297 297 296 296 296 295 294 293 293
316 315 316 320 324 326 324 324 324 323 325 327 326 324 323 323 322 321 321 323 325 326 322 322 330 332 324 321 322 318 315 316 316 317 317 316 316 315 315 317 318 318 320 320 317 313 310 310 310 309 308 307 306 306 305 304 303 301 300 299 300 299 298 298 297 296 294 293 295 295 295 296 297 297 298 298 297 297 297 296 296 295 295 294 293 293
313 315 319 322 325 325 323 323 320 320 325 326 325 324 323 323 322 322 324 326 329 329 322 319 327 332 328 326 325 320 317 317 317 317 317 316 317 316 316 317 317 317 319 317 314 312 310 310 310 309 308 307 306 306 305 305 303 302 301 300 300 298 297 297 297 296 294 293 294 296 296 297 297 298 298 298 297 297 296 296 295 295 295 294 293 293
309 314 320 323 324 322 323 323 317 318 325 326 324 324 324 323 323 325 327 327 325 324 321 318 321 327 331 331 327 323 320 320 319 318 318 317 317 317 317 317 316 318 319 319 316 312 310 310 310 309 308 307 307 306 305 305 303 303 302 301 300 299 297 298 297 295 293 293 295 297 298 298 298 298 298 298 297 297 296 296 295 295 295 294 294 293
308 311 315 319 322 319 318 318 315 319 325 325 324 325 324 323 325 327 327 325 323 325 327 322 320 325 331 328 325 325 324 324 322 320 319 317 317 318 317 317 318 319 319 317 316 313 310 310 309 309 308 307 307 306 305 304 303 302 301 301 300 299 298 298 296 294 294 294 295 297 297 298 299 299 298 298 297 296 296 296 296 295 295 294 293 293
308 308 308 312 317 317 315 315 316 322 324 323 324 324 324 324 326 327 327 326 325 327 328 322 318 324 328 324 322 325 326 326 324 322 320 318 318 318 318 319 318 319 319 316 314 312 311 310 309 308 308 307 306 305 304 303 302 301 301 300 299 299 298 297 295 295 295 295 295 297 297 298 298 298 298 298 297 296 296 296 295 295 294 294 293 292
307 307 307 309 312 311 312 316 320 323 323 323 324 323 325 325 324 325 325 326 327 326 322 318 316 319 325 324 322 323 324 324 324 322 320 320 319 319 320 320 318 318 319 315 310 309 309 308 308 307 306 305 305 303 302 301 300 300 300 299 299 298 298 296 295 295 296 296 297 297 298 298 298 297 297 297 296 295 295 295 294 294 293 293 292 292
310 310 309 309 310 310 313 319 321 321 323 323 323 322 323 323 322 323 323 323 325 324 319 316 315 318 323 324 321 319 317 318 321 322 321 321 321 320 321 319 317 317 316 314 311 308 307 307 306 305 304 303 303 301 301 300 300 299 298 299 298 297 297 296 296 297 297 297 297 297 297 296 296 296 296 296 295 295 294 294 293 293 292 292 291 290
312 311 310 309 310 309 314 321 320 321 323 322 321 322 323 323 322 322 323 323 323 319 315 314 315 320 322 320 318 317 315 315 316 318 319 321 321 319 317 315 314 315 314 314 314 310 307 307 306 305 304 303 302 302 301 300 299 298 298 299 298 297 297 297 297 297 296 296 296 296 296 295 295 295 296 295 294 294 293 293 292 291 291 290 289 289
315 314 311 311 313 309 311 319 321 321 322 321 320 321 323 322 322 322 322 321 320 317 314 313 316 323 323 316 314 314 312 312 312 313 314 315 314 313 311 310 310 311 311 313 315 311 308 307 306 305 304 303 302 301 300 299 298 299 300 300 298 298 297 296 296 296 295 295 294 295 295 296 296 295 295 294 293 292 292 291 291 290 289 289 288 287
317 318 312 310 312 309 309 313 316 318 320 318 317 318 320 318 318 322 322 321 320 317 314 313 315 322 321 314 312 310 309 309 309 309 309 309 309 309 308 308 308 308 309 311 311 308 306 306 304 304 303 302 301 300 300 300 300 301 301 300 297 296 296 296 296 296 295 294 293 294 295 295 295 294 294 293 291 291 290 290 290 289 288 287 286 286
314 314 310 308 308 307 308 309 310 314 319 318 317 319 319 314 315 320 319 318 320 318 316 316 317 317 314 311 308 307 308 308 308 308 307 307 307 307 307 306 306 307 307 309 309 305 303 303 302 302 301 300 300 301 301 302 301 301 301 299 296 296 296 296 296 295 295 294 294 294 295 294 294 293 292 291 291 290 289 289 289 288 287 286 285 284
314 312 310 309 308 305 306 309 310 312 317 319 317 317 313 310 315 320 315 313 316 316 315 316 316 313 311 311 308 306 308 308 308 308 307 307 307 307 308 307 307 307 307 307 307 303 302 302 301 301 301 302 302 302 302 302 301 300 299 297 296 296 296 295 295 295 295 294 294 294 294 293 293 292 291 290 290 289 289 289 288 287 286 285 284 282
313 313 311 311 312 308 306 310 312 309 313 319 316 312 309 308 313 317 315 313 314 314 313 312 313 312 311 312 309 307 308 309 309 310 308 308 309 308 309 308 307 307 306 305 304 302 302 302 302 302 302 302 302 301 301 300 300 299 298 297 297 297 296 296 296 296 296 295 294 294 293 292 291 291 290 289 289 289 289 288 287 286 285 283 283 281
312 314 314 311 312 312 308 313 316 310 310 316 313 310 310 311 313 315 312 311 312 313 312 310 309 309 311 312 310 309 309 309 310 311 309 309 309 308 308 306 305 305 304 305 304 302 302 302 302 301 301 300 300 299 298 297 298 298 299 299 298 297 295 296 296 296 296 295 294 293 292 291 290 290 289 289 289 289 288 287 286 284 283 282 281 281
311 316 317 312 312 315 311 310 313 310 309 312 311 309 310 310 311 312 311 311 313 313 311 310 308 309 311 310 310 310 308 309 311 311 310 310 309 308 306 305 305 305 305 305 305 303 301 301 300 299 299 299 298 296 295 295 296 296 297 297 296 295 295 296 296 295 295 294 293 292 291 290 290 290 290 289 289 288 287 286 284 283 282 281 280 280
311 316 316 314 313 315 311 306 306 307 307 311 312 310 309 308 307 309 309 309 312 314 313 311 311 312 310 306 307 308 307 309 312 311 312 311 309 307 306 306 307 307 306 306 304 301 299 300 300 299 299 298 296 295 295 296 295 294 295 296 296 296 296 296 296 295 294 293 292 291 291 290 290 289 289 288 288 287 285 284 283 282 281 280 280 279
312 316 317 316 313 311 307 302 300 301 302 305 307 306 306 307 308 311 310 306 308 311 313 312 312 312 307 303 304 306 306 308 311 312 314 312 309 308 307 308 308 306 306 305 302 300 298 299 299 298 297 296 295 295 295 296 295 295 296 297 297 298 297 296 295 294 293 293 292 291 290 290 290 289 288 288 287 286 285 284 283 281 280 279 279 279
309 314 315 311 307 306 304 299 297 297 298 301 304 304 305 307 310 312 312 310 308 307 308 310 311 310 306 303 304 305 306 307 308 311 313 311 308 309 308 307 307 306 305 303 300 299 299 299 298 297 296 296 297 297 296 296 296 297 297 296 297 298 296 295 295 294 293 292 291 290 290 290 289 288 287 287 286 285 284 283 281 280 279 279 279 279
309 313 312 309 306 305 301 298 296 296 298 304 306 303 305 307 308 308 308 310 310 309 309 311 311 309 306 303 303 304 304 305 306 308 310 309 307 307 306 306 305 305 304 301 299 299 299 299 298 297 297 298 298 298 297 297 297 297 296 296 297 297 295 295 294 293 292 291 291 290 290 289 288 287 287 287 286 285 284 282 280 280 279 279 279 278
310 312 313 313 312 310 307 305 305 303 304 308 307 303 304 305 306 307 306 308 311 310 310 312 312 309 305 303 302 303 303 304 304 306 308 308 307 306 305 304 304 304 303 302 300 299 299 298 298 298 298 298 298 298 298 297 297 296 296 296 296 295 294 293 293 292 291 291 290 290 289 288 288 287 287 286 285 284 283 282 281 280 279 279 279 278
309 310 311 315 316 315 314 312 311 309 308 308 307 306 306 304 305 309 309 309 311 308 306 311 313 308 304 303 303 304 304 304 304 304 305 307 306 305 305 304 304 303 303 302 301 300 299 298 298 298 298 298 298 298 298 297 297 296 296 296 295 294 293 293 292 292 291 291 290 289 288 288 287 287 287 286 285 284 283 283 282 280 279 279 278 278
307 307 305 310 314 312 310 307 304 305 309 309 307 307 306 304 304 306 308 311 312 310 310 312 311 308 308 306 304 306 306 305 305 304 304 305 305 305 305 304 304 304 302 303 302 301 299 298 298 299 299 298 298 298 297 297 296 296 295 294 294 293 293 292 292 291 291 290 289 288 288 288 288 287 287 286 285 285 284 283 281 280 279 278 278 278
311 309 301 303 306 302 302 301 298 301 306 307 307 307 306 306 304 305 310 312 310 310 313 312 308 309 311 307 306 309 308 306 307 305 303 305 306 306 305 304 303 302 302 303 303 303 302 299 298 298 298 298 297 297 296 296 295 295 294 293 293 293 292 292 291 291 290 290 289 288 288 288 288 287 287 286 286 285 285 283 280 279 278 278 277 277
311 310 301 302 305 298 297 298 298 300 302 302 304 306 306 306 306 307 310 311 309 311 314 310 306 308 309 306 307 309 309 308 308 306 304 304 305 305 304 303 302 301 302 303 303 304 303 299 297 298 298 297 296 296 296 295 295 295 294 293 292 292 292 291 291 290 290 289 289 289 288 288 288 288 287 286 285 285 284 282 280 278 278 277 277 277
310 310 299 301 308 301 297 298 298 299 301 303 305 304 304 307 307 307 309 308 307 310 312 309 306 307 306 305 306 306 307 308 307 306 305 305 305 305 303 303 302 301 302 303 303 303 300 298 298 298 297 297 296 295 295 294 294 294 293 292 292 291 291 291 290 290 289 289 289 289 288 288 288 287 287 286 285 284 283 280 279 278 277 277 277 277
309 310 298 301 311 305 298 297 297 296 299 304 306 304 303 305 304 304 305 304 304 307 308 306 306 306 304 305 305 304 305 305 304 305 305 304 305 304 303 302 301 301 301 301 303 303 299 297 298 298 297 296 296 295 294 294 293 293 292 292 291 291 291 291 290 290 289 289 289 289 288 288 288 287 286 285 284 284 282 280 278 278 277 277 277 277
309 308 299 303 313 309 298 295 298 299 298 301 306 305 302 303 304 304 304 304 305 307 306 305 305 306 306 307 306 303 302 303 303 303 303 303 304 304 302 302 301 301 301 301 302 303 299 297 297 298 297 296 296 295 294 294 293 293 292 292 291 291 291 290 290 290 289 289 289 288 288 288 287 287 286 285 284 283 281 279 278 278 277 277 277 277
307 309 306 306 311 309 300 296 299 302 303 307 311 308 303 301 303 304 304 304 304 305 306 306 306 308 309 309 307 305 303 303 302 301 301 302 303 302 301 301 300 301 302 302 303 303 300 297 297 298 297 296 295 295 294 294 294 293 292 291 291 291 290 290 290 290 289 289 289 288 288 287 287 286 285 284 283 282 280 279 278 278 277 277 277 276
304 308 309 307 307 306 303 300 300 302 306 313 310 303 302 302 302 304 305 305 304 304 306 306 307 310 311 309 309 309 306 305 304 302 301 302 302 301 300 300 300 301 302 303 302 299 298 298 298 298 297 296 295 295 294 294 293 292 292 292 291 291 290 290 290 290 289 289 288 288 288 287 287 286 285 284 283 281 280 278 278 278 277 277 277 276
306 306 305 303 304 306 305 303 303 306 313 313 302 297 299 301 301 303 304 303 303 304 305 305 307 309 310 308 310 311 306 304 303 302 302 303 303 301 300 300 301 301 303 304 301 298 298 298 298 297 297 296 295 294 294 293 293 292 292 291 291 290 290 290 290 289 289 288 288 288 288 287 287 286 285 285 283 281 279 278 278 278 277 276 276 276
305 306 304 304 304 305 304 303 306 312 314 308 299 296 297 298 299 301 303 305 304 302 303 304 304 304 306 307 309 308 305 302 301 302 303 304 304 302 300 300 302 301 302 301 299 298 299 298 297 297 297 295 295 294 294 293 293 292 292 291 291 290 290 290 290 289 289 288 288 288 288 287 287 286 286 284 282 281 279 278 278 278 277 276 276 276
301 304 304 304 303 303 305 309 311 312 312 310 305 301 299 300 302 303 306 309 307 302 301 303 302 302 302 305 307 306 303 302 303 305 304 302 304 304 300 298 300 300 299 299 299 299 299 298 297 297 296 295 294 294 293 293 292 292 291 291 290 290 290 290 289 289 289 288 288 288 288 287 286 286 285 284 283 281 280 278 278 277 276 276 276 276
298 302 304 305 305 303 305 308 309 310 313 312 308 304 300 301 302 301 304 310 310 304 301 301 302 302 302 304 307 305 302 302 303 305 305 302 302 303 302 299 298 299 299 299 299 299 298 298 297 296 295 294 294 293 293 293 292 291 291 290 290 290 290 289 289 289 289 288 288 288 288 287 286 286 285 285 284 283 280 278 278 277 276 276 276 276
298 301 302 304 306 304 303 305 307 308 311 312 309 304 300 301 301 301 306 314 313 306 303 302 301 302 303 306 306 303 302 303 304 306 308 303 298 300 302 300 298 299 300 299 299 298 298 297 296 295 294 294 293 293 293 292 291 291 291 290 290 290 290 289 290 290 289 289 288 288 288 287 286 286 285 285 285 283 280 278 278 277 276 276 276 275
299 302 304 304 307 306 305 306 307 307 309 311 309 303 300 300 300 303 312 316 310 306 305 304 303 303 304 306 304 302 302 305 306 307 308 301 296 297 299 297 297 298 299 298 298 297 297 296 295 294 294 294 293 293 293 292 291 291 291 291 290 290 290 290 290 290 289 289 288 288 288 287 286 286 286 285 285 283 280 278 278 277 276 276 276 275
300 302 303 304 307 308 306 307 309 310 311 309 305 300 298 299 302 309 318 314 308 308 306 303 304 305 306 305 302 300 303 306 307 307 304 300 298 297 296 296 297 297 297 297 297 296 295 295 295 294 294 294 293 293 293 292 291 291 291 291 290 291 291 290 290 290 289 289 288 288 288 287 287 286 286 285 284 283 281 279 278 277 277 276 276 275
303 302 302 303 306 308 308 307 308 312 310 304 300 298 297 303 312 318 315 307 304 307 306 302 303 306 307 305 301 301 305 306 304 304 304 303 301 297 294 295 295 295 295 295 295 295 295 294 294 294 294 293 293 293 292 292 291 291 291 291 291 291 291 290 290 290 289 289 289 288 288 288 287 287 286 285 284 283 282 280 279 278 277 276 276 275
305 306 306 305 305 307 306 304 307 315 311 301 299 300 300 308 317 313 306 304 304 305 304 302 302 304 306 305 302 304 307 304 301 303 303 303 300 296 294 294 294 294 294 294 294 294 294 294 293 293 293 293 293 293 292 291 291 291 291 291 292 291 291 290 290 290 289 289 289 288 288 288 287 287 286 285 284 283 282 281 279 278 277 276 276 275
305 308 311 309 307 308 308 305 308 316 310 300 302 308 307 307 310 307 305 307 305 304 305 304 303 303 304 304 305 306 306 303 302 303 303 302 300 295 292 293 293 293 293 294 294 294 294 294 293 293 293 293 293 293 292 292 292 291 291 292 292 291 290 290 290 290 289 289 289 288 288 287 287 287 286 286 285 283 282 281 280 278 277 277 276 275
305 306 307 308 310 311 312 311 308 308 304 299 302 310 309 307 308 307 305 305 305 305 305 304 304 303 302 303 306 306 303 303 303 302 301 302 300 294 292 293 293 293 293 293 293 294 294 294 293 293 292 293 292 292 293 292 292 292 292 292 291 291 290 290 290 289 289 289 289 288 288 287 287 286 286 286 285 283 282 281 280 279 277 277 276 275
301 300 300 304 308 307 308 310 305 302 303 301 301 303 305 306 307 306 304 304 307 308 305 303 304 304 303 303 305 304 303 304 303 300 299 301 298 293 292 293 293 293 293 293 293 293 293 293 293 292 292 292 292 292 292 292 292 292 293 292 291 291 291 290 290 289 289 289 289 288 287 287 287 286 286 286 285 283 282 281 280 279 277 276 275 275
300 299 300 303 305 305 307 310 306 303 305 305 302 301 302 303 305 305 305 306 307 307 306 304 302 303 303 302 303 304 303 303 303 301 300 300 298 293 292 293 293 293 293 293 294 294 293 293 292 292 292 292 292 292 292 292 293 293 293 292 291 291 291 290 290 289 289 289 288 288 287 287 287 286 286 286 285 283 281 281 280 279 278 276 275 275
302 299 301 303 302 303 307 309 305 303 305 305 304 304 302 302 303 304 304 305 305 305 303 300 299 301 302 301 302 303 303 303 303 302 301 299 295 292 292 293 293 293 293 294 294 294 293 293 292 292 292 292 292 293 292 293 293 292 292 291 291 291 291 290 290 290 289 289 288 288 288 287 286 286 286 285 285 283 282 281 281 280 278 277 276 275
299 300 304 304 302 302 304 303 301 302 305 306 305 303 302 302 303 303 304 304 304 303 301 298 297 298 298 299 300 300 302 304 301 298 301 300 294 291 292 293 293 294 294 294 294 294 294 293 293 293 293 293 293 293 292 293 293 292 292 291 291 291 291 290 290 289 289 289 288 288 287 287 286 286 286 285 285 284 282 281 281 280 278 277 276 275
297 302 304 303 304 305 304 304 304 304 307 310 309 307 305 303 302 303 304 304 304 303 302 300 298 295 294 295 296 298 302 303 298 295 296 296 293 292 293 293 293 294 294 294 294 294 293 294 294 293 293 293 293 293 293 293 293 292 292 291 291 291 291 290 290 289 289 288 288 288 287 287 286 286 286 285 285 284 282 281 281 280 278 277 276 275
299 303 303 302 306 306 303 307 310 306 305 309 310 312 311 305 303 304 304 304 304 302 300 300 300 298 297 294 292 295 300 299 296 294 294 293 293 294 294 294 294 294 294 294 294 293 293 293 293 293 294 294 293 293 292 293 293 293 292 292 291 291 291 291 290 290 289 289 288 288 287 287 286 286 286 285 284 284 283 282 281 280 278 277 276 275
Wind_Speed
3 2 2 3 3 2 2 2 3 5 11 11 11 9 8 8 6 6 6 2 2 1 4 5 7 7 6 6 5 4 4 3 4 4 3 3 3 3 4 5 5 5 8 10 13 15 14 13 12 12 11 10 8 8 7 7 7 6 6 6 7 6 6 6 4 3 3 3 3 3 3 4 3 3 5 6 6 7 10 12 13 12 12 13 12 12
2 3 2 2 0 4 4 5 7 4 13 12 10 9 8 7 6 6 5 3 1 1 4 5 6 6 5 5 5 4 4 4 4 5 4 4 4 4 4 5 5 5 6 8 12 13 13 13 13 13 12 10 8 7 8 8 7 6 6 7 7 5 6 7 5 6 6 5 5 5 4 5 6 7 7 6 7 9 10 12 12 12 12 11 9 11
1 2 3 3 2 4 5 6 3 8 14 10 8 8 7 6 8 7 4 2 0 1 4 4 5 4 4 5 4 5 5 3 4 4 3 4 4 4 5 5 5 5 5 8 10 13 15 14 14 13 11 10 9 8 7 8 8 7 8 9 8 7 7 7 7 8 7 6 8 7 6 7 8 8 7 7 9 9 8 8 9 11 12 9 8 10
2 2 3 4 5 3 2 3 3 11 10 7 8 6 6 8 7 4 3 3 1 2 5 6 4 3 4 4 3 5 5 3 4 4 3 4 4 4 5 5 6 6 6 7 9 13 16 15 14 13 11 10 10 9 8 8 8 8 8 8 7 7 8 7 8 7 6 8 9 7 6 7 8 8 7 8 8 7 5 3 5 10 10 8 7 9
4 2 5 5 5 3 2 4 6 7 5 4 5 7 9 9 7 7 7 6 3 4 4 5 3 2 4 4 4 4 4 4 5 5 5 4 5 4 4 5 7 7 6 7 7 11 15 15 14 13 12 11 10 10 10 9 8 7 7 7 7 7 7 7 8 8 7 7 6 5 7 7 7 8 7 4 3 4 3 2 6 10 9 8 8 9
4 3 5 3 4 3 3 6 7 2 4 4 3 8 12 10 11 12 10 8 3 2 3 3 2 1 3 4 4 4 4 5 4 5 6 6 6 5 4 6 7 7 6 4 4 9 14 14 14 14 12 11 10 9 9 9 7 6 6 7 8 7 6 7 8 8 7 5 4 4 6 6 7 7 6 4 2 3 4 5 7 8 8 9 9 10
4 7 5 2 2 3 5 6 6 4 5 3 1 9 13 12 13 13 10 6 2 2 2 1 2 1 1 3 5 6 5 6 5 6 7 6 6 6 6 7 7 7 5 3 3 8 12 13 13 13 12 11 9 7 8 9 8 9 9 9 8 6 5 7 8 8 6 3 4 4 5 5 5 5 4 4 5 6 6 5 6 5 8 10 9 11
5 9 7 3 3 5 5 3 5 5 4 3 1 7 12 12 13 12 8 4 2 4 3 0 1 0 1 2 4 8 6 5 7 8 9 8 8 8 8 9 9 7 6 5 4 6 10 12 12 11 11 10 9 9 10 10 9 9 9 7 5 4 5 7 8 6 3 1 2 3 3 3 4 4 4 4 5 6 6 4 6 6 6 9 10 12
4 7 6 5 5 5 2 2 6 5 5 1 2 7 12 11 11 9 6 4 3 4 2 2 1 1 1 2 2 6 4 5 8 10 10 10 11 11 11 11 9 7 6 7 6 7 10 12 10 10 11 10 10 10 10 9 8 7 5 4 4 4 5 5 3 2 2 2 2 2 2 1 2 3 3 4 4 6 6 5 6 6 5 7 9 11
2 3 3 2 4 3 2 4 5 3 3 1 2 9 9 7 7 6 4 5 3 2 2 2 1 1 1 3 1 4 3 5 7 8 10 11 11 11 10 9 7 6 6 7 8 10 11 11 10 9 10 11 10 9 8 7 5 4 4 4 3 3 2 2 0 0 1 2 1 1 2 1 2 3 3 4 4 6 6 6 6 7 7 7 8 9
1 0 2 2 4 1 3 4 4 2 3 4 5 9 7 5 4 2 2 4 3 2 0 2 2 2 1 3 3 3 2 4 6 6 7 9 10 10 8 7 7 6 5 6 8 11 12 10 9 9 9 9 8 6 6 5 4 4 4 4 4 5 3 1 1 1 2 3 2 1 2 3 4 5 6 5 5 7 6 6 6 7 7 8 8 9
4 4 1 1 1 1 2 1 2 2 1 3 5 6 5 4 3 2 3 2 2 1 2 3 3 2 1 3 4 4 2 2 2 5 7 8 8 8 6 5 5 5 6 6 6 9 12 11 10 9 9 8 6 5 5 4 5 5 5 6 7 6 3 3 4 3 4 4 4 4 4 5 6 6 7 6 6 7 7 7 7 7 7 7 9 10
6 5 3 2 1 1 2 1 3 5 4 0 4 6 5 3 2 2 1 0 1 1 2 2 3 1 2 2 3 6 2 4 4 4 5 6 6 5 4 4 4 4 5 6 5 7 10 12 11 11 10 8 6 6 5 4 5 7 8 7 6 6 5 5 6 5 5 5 5 6 6 7 7 7 6 5 5 6 6 7 7 8 8 8 10 12
3 3 6 6 1 3 4 2 3 2 3 1 3 4 4 3 3 2 3 2 1 2 3 3 3 1 2 1 2 5 4 4 5 6 6 6 6 6 5 5 5 5 5 5 5 6 8 11 12 11 10 9 8 7 6 6 8 10 9 7 7 8 7 7 7 6 6 6 6 6 7 7 7 6 5 4 5 5 6 6 7 8 8 9 10 11
3 3 5 5 2 4 5 2 2 1 2 0 1 2 3 2 2 3 3 2 2 1 2 3 1 2 2 0 3 5 5 5 5 6 6 6 6 5 5 4 4 4 4 4 4 5 8 10 11 11 10 10 9 9 9 10 10 11 10 8 8 10 8 8 7 6 6 6 6 6 6 6 5 4 4 4 6 6 7 7 7 8 9 11 11 11
3 3 3 2 3 4 5 1 1 0 1 1 2 2 2 1 2 3 1 2 4 2 1 1 1 1 1 2 3 5 5 4 5 5 5 5 4 4 4 3 3 3 4 4 4 5 8 11 11 11 12 12 12 11 11 11 11 11 11 9 9 10 8 8 7 6 6 6 6 6 5 4 4 4 3 5 6 7 8 8 8 8 9 10 11 12
3 2 4 3 1 1 2 2 1 1 1 1 3 2 0 1 4 5 1 1 2 2 1 2 2 1 2 2 1 3 4 3 4 4 4 5 5 4 4 4 4 4 4 4 5 6 9 11 12 13 14 13 13 13 12 12 11 11 10 10 10 9 8 7 6 6 5 5 5 5 4 3 4 4 4 6 7 7 8 8 8 8 8 10 11 13
3 3 2 3 2 1 0 1 2 1 1 1 1 2 1 2 3 3 2 2 1 1 1 2 2 2 2 1 1 3 4 4 5 5 5 6 5 5 5 4 5 5 5 5 6 8 10 12 13 13 14 13 13 12 13 13 12 11 10 9 9 8 7 7 6 6 5 4 4 4 3 4 4 5 6 7 7 8 9 9 9 9 9 10 11 13
1 4 2 3 2 2 1 2 2 3 3 4 3 2 2 2 1 1 2 1 1 1 1 1 0 1 2 2 3 6 7 6 7 6 7 6 6 5 5 5 6 5 5 5 5 7 10 11 13 13 14 13 13 12 13 13 12 12 11 9 7 6 6 6 6 5 4 3 3 3 3 4 4 6 7 7 7 8 9 9 9 9 10 11 12 14
1 2 1 2 2 2 2 4 3 4 5 4 2 1 1 2 2 0 1 2 2 2 1 0 1 2 2 1 2 6 7 8 8 7 6 7 6 6 6 5 5 5 5 5 4 6 9 12 13 13 13 13 12 13 12 12 11 10 9 7 6 5 5 6 6 4 3 3 3 3 3 4 5 6 7 7 8 8 8 8 9 11 12 12 12 14
1 2 2 0 3 3 2 3 1 1 2 3 4 3 3 2 1 1 1 1 2 2 0 2 1 2 3 2 2 1 2 6 9 7 6 6 7 7 6 6 6 5 5 5 5 7 10 13 13 12 12 12 12 12 11 10 9 8 7 6 6 6 6 7 6 4 4 4 3 3 4 4 5 6 6 7 7 7 7 8 10 12 12 12 12 14
2 2 3 2 2 3 0 1 0 0 0 1 2 1 0 1 1 2 2 2 1 2 1 3 2 3 4 2 3 4 4 2 4 6 7 6 7 8 7 6 6 6 6 6 6 8 11 13 12 11 11 11 11 11 9 8 8 7 6 6 6 6 6 6 5 4 4 4 4 3 4 4 4 5 6 6 7 7 8 9 10 12 13 13 14 15
1 3 4 2 1 1 2 2 1 1 1 1 0 1 1 1 2 3 1 2 1 2 0 2 3 3 4 0 1 2 3 3 3 2 6 6 7 7 7 6 7 6 6 6 7 10 11 12 12 11 11 11 9 8 8 7 7 7 6 7 7 7 7 6 5 5 5 4 4 3 3 3 4 4 5 5 7 8 8 10 11 12 13 14 15 15
1 2 3 2 0 0 1 1 1 1 1 0 1 1 1 1 2 2 2 2 0 0 0 2 1 3 4 1 2 1 1 1 3 2 6 7 6 6 7 6 6 6 6 6 8 10 11 12 12 11 10 10 9 8 8 8 8 7 7 7 7 7 7 6 6 5 5 5 4 2 2 2 3 3 4 5 7 8 9 10 11 12 14 15 15 16
2 1 2 3 2 1 2 2 2 1 0 0 1 1 0 1 1 0 0 2 1 1 2 3 1 3 2 1 2 2 3 3 3 2 4 7 6 6 6 6 6 6 6 6 7 8 10 11 11 11 10 9 9 9 9 8 7 7 7 8 8 7 6 6 6 6 5 4 3 2 2 2 2 3 5 6 7 8 9 10 12 13 14 15 16 15
2 2 1 3 4 3 1 2 2 2 1 0 1 1 1 0 2 1 1 2 0 1 2 3 3 4 3 2 3 5 5 5 5 4 4 5 6 6 6 6 6 6 6 6 6 7 9 10 11 11 10 10 10 10 10 9 9 8 9 8 7 7 7 7 7 6 5 3 2 2 2 2 2 4 5 6 7 8 9 11 12 14 14 15 15 15
4 4 3 2 4 4 2 2 1 1 0 1 1 1 1 1 2 3 3 1 3 2 1 4 3 3 5 4 5 6 6 6 6 5 4 4 6 6 6 6 6 5 6 7 6 7 8 10 11 12 11 11 11 10 10 10 10 9 9 9 8 7 8 8 7 6 4 3 3 4 3 1 2 3 5 6 7 8 10 11 12 13 14 14 14 14
3 3 2 3 4 2 1 1 2 2 1 1 0 1 3 3 2 3 3 3 2 4 3 5 1 2 6 4 6 7 6 6 6 7 7 7 6 6 6 6 6 6 6 6 6 7 7 8 11 13 13 12 12 12 11 11 10 9 9 9 9 8 8 8 7 5 4 5 5 4 3 1 1 3 5 7 7 8 10 11 12 12 13 14 14 14
4 2 2 1 2 0 0 1 2 1 1 1 2 3 4 5 5 6 6 6 4 4 6 4 0 4 7 4 3 5 6 7 8 8 8 7 7 7 7 7 7 7 7 7 7 7 7 8 12 14 14 14 14 13 12 12 11 10 9 9 9 9 8 7 6 6 6 6 5 4 2 1 2 4 5 6 6 8 10 10 11 12 13 13 13 14
3 2 1 2 2 1 2 2 1 1 2 3 4 5 5 5 8 8 6 6 4 5 7 4 5 9 9 7 7 6 4 4 3 4 7 8 9 9 8 8 8 8 8 8 7 7 8 10 14 16 16 15 15 14 13 12 12 11 10 10 10 9 8 7 7 7 7 6 5 4 3 2 2 3 4 4 6 8 9 10 10 11 12 13 13 13
2 2 1 1 2 2 3 2 1 2 2 4 5 6 6 6 6 7 6 4 3 6 8 5 7 11 8 6 8 6 3 4 3 3 6 7 8 9 9 9 9 8 8 8 7 7 9 12 16 17 17 17 16 15 14 13 12 12 11 11 10 9 9 8 8 9 8 7 5 4 2 1 1 2 2 4 6 7 9 10 10 11 12 13 13 13
2 2 1 2 2 3 3 2 2 4 3 4 8 9 9 7 5 6 6 5 6 5 4 2 5 9 6 4 4 2 4 5 5 6 6 6 8 9 9 9 9 9 9 8 8 8 9 12 16 18 19 18 17 16 15 14 14 13 12 12 11 10 10 10 10 10 8 7 6 4 3 1 1 2 2 4 6 7 8 9 10 11 12 13 13 13
3 4 1 2 1 3 4 3 3 4 4 4 8 9 11 11 8 5 5 8 10 8 5 6 8 7 4 5 5 3 4 6 7 7 7 7 8 9 9 10 9 9 9 8 9 9 11 15 19 20 20 19 19 17 16 16 15 14 13 12 11 12 12 12 11 10 9 8 6 5 4 3 2 2 2 4 5 6 7 9 10 11 12 13 13 13
2 3 1 1 1 2 5 4 3 3 3 5 5 2 6 10 12 11 9 10 12 10 6 7 7 5 6 7 7 7 7 7 7 8 8 7 8 9 9 9 9 9 9 9 9 11 15 18 19 20 20 19 19 17 16 14 14 13 13 12 12 13 13 13 12 11 10 8 7 6 5 4 3 2 2 3 4 5 6 8 10 11 12 13 13 13
2 2 1 1 1 1 2 3 4 3 7 5 2 2 0 3 9 12 12 10 11 12 11 11 10 8 8 8 8 8 8 7 7 7 8 8 8 9 9 9 10 9 9 8 9 13 17 19 20 20 20 19 18 18 16 15 14 14 14 13 14 14 14 13 13 12 10 9 9 8 7 5 4 2 2 3 4 5 6 8 10 10 11 12 13 13
3 2 1 1 1 1 1 2 2 6 6 1 1 2 1 2 4 5 8 10 12 14 13 14 16 13 9 8 7 6 6 4 2 5 8 8 8 9 10 9 9 9 10 11 13 17 20 22 23 23 22 21 20 18 17 16 16 15 15 15 15 15 14 14 13 13 12 11 10 9 8 6 5 3 2 2 3 4 6 8 9 10 11 12 12 12
2 2 1 1 0 0 1 2 4 5 6 3 1 2 2 3 5 5 3 8 10 12 14 15 16 13 10 8 6 5 5 3 4 6 9 10 9 10 11 11 12 12 14 16 19 20 22 23 23 23 23 21 20 19 18 17 16 16 16 16 16 15 14 15 15 14 12 12 11 10 8 7 6 4 3 3 3 4 6 7 8 9 10 11 12 13
1 2 3 1 0 2 2 2 3 4 4 4 3 3 4 4 4 4 0 5 7 6 10 14 14 12 9 7 6 6 4 0 6 7 7 10 10 9 10 12 15 17 17 18 19 19 20 21 22 22 22 21 20 18 18 18 17 17 18 18 17 16 16 16 16 14 13 13 11 9 8 8 7 5 4 4 4 5 6 7 7 8 9 11 12 13
3 1 2 2 0 2 3 1 2 3 5 5 5 5 4 2 2 2 3 4 6 4 3 9 12 10 7 8 8 7 5 4 7 7 5 10 11 10 9 10 14 17 18 19 20 20 21 22 21 21 21 20 20 19 18 18 18 19 19 19 18 17 18 17 16 15 14 13 11 10 9 9 7 6 6 5 5 5 6 6 7 9 10 10 11 13
3 2 0 1 2 3 3 2 3 4 5 5 5 6 4 3 4 4 3 4 4 3 2 4 8 8 7 9 8 8 7 7 7 6 4 8 10 11 12 12 15 18 19 19 20 21 22 22 22 22 21 20 20 19 19 19 19 20 20 20 19 18 19 18 16 15 14 13 11 10 10 9 8 7 6 6 6 6 6 6 7 9 10 10 11 12
1 1 1 2 3 4 4 3 4 5 5 3 4 5 5 3 3 2 3 5 3 3 3 3 5 6 7 10 8 7 7 6 4 3 3 8 9 9 12 15 16 18 19 20 21 22 23 23 22 21 20 19 19 19 19 20 21 21 20 19 19 20 18 16 14 14 14 13 11 11 10 10 9 7 6 6 6 6 6 6 8 9 10 11 12 13
2 1 1 2 2 4 4 2 3 6 5 3 5 3 3 3 1 4 5 3 2 4 5 3 5 5 6 10 9 6 4 4 4 4 6 9 9 9 13 16 17 17 17 19 21 22 23 22 19 18 18 18 19 19 20 21 21 21 20 20 20 19 16 15 15 15 14 12 12 11 11 10 9 8 7 7 7 7 7 7 8 9 10 11 12 13
5 4 2 3 4 3 2 1 1 5 4 6 9 3 0 3 5 5 2 1 3 5 4 3 5 5 5 8 7 6 5 5 5 6 7 8 8 11 15 18 19 19 20 21 22 22 22 21 19 19 19 19 19 19 20 22 22 21 21 21 20 17 15 16 16 14 13 12 12 12 12 11 9 8 8 8 7 7 7 7 8 9 10 11 12 13
4 5 3 4 4 4 4 4 5 5 6 8 8 5 5 6 5 5 4 2 3 4 4 3 5 5 4 7 7 6 6 5 5 6 7 7 8 10 14 17 19 20 21 22 23 22 21 21 20 19 20 20 19 19 20 21 21 21 22 21 18 16 16 16 15 13 13 13 13 13 12 11 10 9 8 8 8 8 8 7 8 10 10 11 12 13
5 4 3 3 4 4 6 7 7 4 5 8 8 6 5 5 4 6 6 2 2 4 4 3 4 6 4 5 7 6 5 5 6 5 6 7 8 9 13 16 19 22 22 22 23 22 21 21 21 20 20 20 19 19 20 21 21 22 21 19 17 17 17 16 14 14 14 13 14 14 12 11 11 10 9 9 9 9 9 8 9 10 11 11 12 13
3 2 2 1 3 4 5 6 7 5 4 7 10 8 5 4 4 5 6 5 5 5 5 3 4 6 5 4 6 6 5 5 6 5 5 6 7 10 14 16 17 20 21 21 22 23 21 20 20 20 21 20 20 20 19 20 21 21 19 18 17 17 16 15 15 14 14 14 15 14 13 12 12 11 10 10 10 10 9 9 9 10 11 11 11 12
3 3 2 1 2 3 5 6 6 6 6 7 9 9 8 8 7 6 6 6 6 6 6 5 5 5 5 5 6 6 6 6 7 6 5 6 7 9 14 16 17 19 22 22 23 24 22 20 20 20 20 20 20 20 20 20 21 20 18 17 17 16 16 15 15 15 15 15 15 15 14 13 13 12 11 11 11 11 10 9 9 10 11 11 11 12
3 4 3 4 4 4 5 8 7 6 6 7 8 7 8 9 9 8 7 7 6 6 5 5 5 5 5 6 6 6 6 6 7 7 6 6 7 10 14 16 18 20 21 22 22 23 23 22 21 21 21 21 20 20 21 20 20 19 19 18 17 16 15 15 16 16 16 16 16 15 14 14 13 13 12 12 12 11 10 9 10 11 11 11 11 12
4 4 4 4 4 4 8 10 8 6 8 9 9 9 9 9 9 8 8 7 8 7 6 6 7 7 7 7 7 7 7 7 8 8 7 6 7 11 15 17 19 21 21 21 22 23 23 23 22 21 21 21 19 20 21 20 19 19 20 19 18 17 16 16 16 16 16 16 16 16 15 15 15 14 13 13 13 11 10 9 10 11 12 12 12 12
4 4 4 3 2 5 7 7 5 3 6 9 9 10 12 11 9 8 7 7 9 9 8 8 8 8 8 9 9 8 7 8 9 10 9 8 10 14 17 19 19 20 21 21 21 22 23 22 22 21 21 20 19 20 20 20 20 20 20 20 19 18 17 16 16 16 17 17 17 17 16 16 16 15 14 14 14 12 10 9 10 11 11 12 12 12
6 7 7 6 5 8 9 8 7 5 6 8 6 7 8 8 7 8 9 9 10 10 9 9 9 8 8 10 13 13 9 8 11 12 10 10 15 18 19 20 20 20 20 21 21 21 22 22 21 21 21 20 20 20 20 20 20 20 21 21 20 19 18 17 17 17 18 18 18 18 17 17 17 16 15 15 15 13 12 10 10 11 10 10 11 12
Wind_Direction
207 153 137 153 176 217 209 265 299 154 141 120 106 105 105 103 97 108 120 143 241 100 91 92 107 132 152 165 174 161 164 178 158 153 168 171 185 217 221 212 207 215 233 223 198 188 192 199 199 201 205 200 191 188 193 217 238 240 235 239 242 244 239 231 237 269 266 266 269 269 290 287 294 319 317 319 300 280 292 305 320 335 339 342 344 346
235 148 98 53 328 283 286 285 291 152 128 112 110 114 99 100 99 99 117 138 270 46 98 102 102 117 147 166 172 163 182 198 175 166 173 186 193 201 224 228 214 217 216 184 170 178 190 194 193 196 196 190 192 198 207 220 232 237 229 231 240 235 237 240 222 222 235 242 250 252 266 276 290 306 306 302 286 284 298 308 321 336 343 348 345 344
112 98 46 5 313 286 280 278 287 117 118 110 115 117 108 116 106 89 102 135 269 59 127 127 106 110 142 159 167 177 199 210 182 174 173 191 203 200 213 228 226 217 186 167 175 186 191 193 191 194 196 196 196 201 217 224 222 228 229 233 239 226 230 241 231 234 238 244 262 272 284 300 317 326 310 282 284 299 313 314 319 334 345 353 349 347
113 55 343 310 311 310 281 282 121 113 109 117 131 125 128 144 133 112 129 139 69 64 138 146 117 114 143 146 175 189 197 203 186 187 189 205 221 221 216 220 230 220 196 187 185 181 183 186 188 192 197 201 201 200 209 220 222 227 235 242 241 226 226 235 243 256 255 255 274 295 319 333 336 336 315 279 290 326 344 319 312 332 349 358 357 354
78 25 310 298 309 305 123 73 83 108 100 99 123 132 144 153 135 124 140 141 84 58 137 153 118 138 163 163 193 186 189 207 189 185 197 215 233 247 247 239 238 228 214 203 181 170 172 176 184 194 198 199 204 205 205 217 227 229 233 240 237 227 226 234 250 267 269 271 292 320 335 343 338 338 336 299 307 12 21 325 320 333 350 3 357 354
59 354 321 324 332 330 102 71 25 34 118 75 61 138 150 145 123 126 144 147 113 92 185 174 107 207 181 182 189 158 185 214 192 193 203 209 219 231 246 245 241 233 222 209 162 157 163 171 184 193 196 196 202 211 216 220 221 217 218 221 223 223 225 241 257 267 269 277 302 319 325 332 329 337 5 27 11 359 341 327 333 332 341 358 356 350
4 348 341 321 358 34 84 79 13 356 117 87 39 139 139 130 126 140 153 147 126 136 155 142 126 184 213 204 178 155 188 210 195 207 212 207 210 214 220 226 226 223 213 184 142 151 159 170 179 183 190 195 198 207 213 210 204 208 214 218 228 230 228 244 257 267 278 298 316 321 320 326 329 329 355 6 336 334 340 345 357 340 323 339 349 348
340 350 360 359 39 60 70 71 341 334 105 104 306 130 128 131 138 151 151 129 117 103 76 248 171 99 274 226 159 153 177 202 202 211 212 205 205 206 214 217 212 208 191 168 169 160 156 166 175 181 189 193 197 200 201 203 206 217 222 228 239 219 218 244 263 281 299 301 284 303 314 331 350 343 342 346 338 351 4 11 12 356 325 338 353 353
347 358 0 5 40 62 57 268 293 327 88 115 277 125 129 139 146 154 138 113 139 116 83 252 244 63 277 304 124 147 172 217 216 212 207 202 200 202 206 209 205 196 176 165 175 174 166 168 176 183 181 180 187 192 197 207 213 219 217 221 221 199 220 250 277 297 290 272 263 279 294 308 349 355 4 4 8 14 13 16 18 12 353 354 359 355
26 0 313 353 52 58 311 268 276 339 77 216 184 116 122 136 146 164 134 112 130 110 126 222 305 90 255 299 163 160 209 227 215 206 203 200 197 200 200 194 189 184 173 166 163 161 160 160 160 159 160 169 184 192 202 211 207 202 197 203 190 162 200 249 203 228 307 347 16 332 330 1 6 19 47 42 34 29 20 20 25 22 9 1 357 352
118 17 281 38 56 325 281 272 257 249 139 160 129 113 120 128 136 168 86 91 94 63 300 288 358 97 210 272 194 187 258 219 192 183 188 191 190 194 194 180 177 179 167 148 138 136 137 142 150 152 159 176 190 192 196 191 180 181 174 155 130 130 158 169 94 61 40 41 65 71 38 54 57 52 57 55 41 30 24 20 15 14 9 3 354 341
52 35 10 26 51 262 292 323 325 326 77 121 130 125 117 105 88 45 23 33 101 156 271 306 353 86 192 262 208 193 329 11 156 165 164 169 173 177 176 159 161 165 146 133 129 131 134 138 150 161 166 174 174 168 174 169 162 154 132 130 133 135 139 101 81 77 74 67 62 64 62 65 71 68 59 49 39 31 25 17 7 4 1 354 345 337
35 29 13 319 218 51 10 59 38 353 340 41 141 122 104 110 103 71 37 41 108 237 272 334 335 289 216 252 170 155 107 40 66 92 108 124 131 128 113 94 84 83 102 120 131 138 144 148 156 164 163 158 152 154 163 153 140 127 122 136 139 119 106 96 93 91 86 76 69 71 67 62 64 67 62 49 40 34 25 15 6 3 360 355 350 343
52 41 9 351 335 15 8 84 84 354 293 195 148 124 112 139 134 138 184 155 95 282 305 335 332 273 241 312 102 124 105 72 74 71 70 78 83 84 82 77 72 68 70 86 109 127 141 146 149 151 150 146 145 148 145 133 129 126 129 139 128 112 108 104 97 87 78 73 73 78 75 70 65 61 61 48 35 29 22 18 11 2 355 356 355 343
77 87 11 357 318 338 4 67 134 244 259 189 127 113 114 147 141 145 170 144 127 157 339 339 343 170 203 241 96 105 91 77 74 73 71 68 68 73 75 77 89 103 101 96 102 112 122 130 133 133 133 134 136 138 132 126 125 123 126 130 121 114 109 103 96 84 75 73 75 80 83 85 80 67 51 34 28 21 19 20 14 4 355 352 351 339
81 76 330 293 251 305 355 3 197 328 311 334 15 62 100 202 150 125 145 136 131 122 70 282 270 179 133 71 69 92 97 98 100 98 95 90 93 97 95 103 110 115 128 128 116 109 114 123 127 126 128 129 131 131 127 125 127 126 126 125 118 115 110 104 98 87 80 78 80 83 86 88 86 74 43 28 29 23 22 20 8 4 354 343 344 342
119 71 311 293 234 284 344 322 335 75 179 323 16 39 234 199 121 113 69 29 104 126 160 205 239 59 70 21 28 122 125 127 133 137 133 131 142 139 127 131 123 113 118 121 119 120 122 125 127 126 128 129 130 129 126 124 125 128 130 127 121 115 108 101 94 87 85 87 95 96 88 73 58 51 39 32 33 22 17 13 2 0 351 341 347 348
113 103 340 351 34 274 222 5 342 33 121 94 100 192 189 53 82 105 94 26 42 140 204 228 198 172 175 276 246 176 178 178 172 166 149 148 158 147 135 134 124 114 107 102 108 120 124 122 121 121 123 125 129 131 131 130 128 127 123 120 117 112 107 104 98 98 102 103 103 97 78 63 46 43 43 37 29 15 9 7 3 0 354 351 352 349
77 89 22 347 354 280 6 48 356 356 40 86 138 177 112 80 20 7 106 130 174 161 247 300 304 204 204 192 206 211 204 185 178 172 156 162 167 144 134 130 122 119 115 112 112 119 122 120 118 118 120 123 127 131 133 134 134 130 125 123 124 121 117 117 119 124 129 124 109 95 78 61 49 45 40 30 20 11 7 6 3 2 2 359 352 348
248 87 62 308 323 311 9 35 10 339 358 30 64 33 46 112 139 148 117 141 150 143 169 351 11 317 263 244 212 203 194 178 174 175 167 171 168 145 141 144 142 148 144 137 137 131 122 119 119 122 123 124 127 131 132 132 133 133 132 133 133 128 123 121 128 136 128 121 117 100 79 61 48 38 27 22 17 11 8 6 4 6 6 2 353 351
14 65 118 38 353 0 21 27 10 306 340 9 25 18 6 16 72 104 70 78 127 136 124 93 83 268 271 318 355 75 161 169 163 167 177 172 156 142 145 154 154 152 145 140 142 135 124 119 118 120 125 129 132 133 132 134 136 137 136 133 128 128 129 129 135 136 114 116 121 99 76 58 39 25 21 20 17 13 11 9 7 6 5 3 359 358
42 64 99 94 32 34 53 241 316 17 262 25 48 74 164 306 12 61 12 324 83 109 149 121 115 258 264 335 8 22 33 80 133 157 173 157 136 135 142 151 151 147 145 146 140 129 126 125 124 127 131 133 133 134 137 140 141 144 147 143 137 135 136 139 141 136 128 132 130 100 69 47 30 25 26 20 14 15 15 12 8 4 4 7 5 2
94 82 74 72 58 76 175 185 78 21 262 255 262 226 231 320 67 90 124 276 3 40 228 131 115 257 264 41 34 22 37 24 20 106 141 129 120 128 136 141 142 143 144 137 126 124 125 129 131 135 135 132 133 140 145 146 149 156 158 149 144 143 145 146 145 143 148 146 127 96 57 37 37 37 29 16 14 17 15 12 8 4 6 8 7 5
40 80 75 84 191 287 179 176 32 327 252 301 264 264 357 98 138 135 160 166 66 301 186 82 75 266 262 198 143 129 106 31 353 42 113 121 124 136 144 148 143 139 132 118 118 124 127 130 134 138 142 143 146 152 156 159 164 166 160 150 149 152 153 152 153 155 156 143 117 89 55 50 58 50 27 15 17 17 13 11 8 6 8 7 6 6
43 94 98 103 102 21 0 317 304 281 216 73 111 103 340 193 137 352 24 87 71 221 127 101 211 248 248 207 184 181 176 182 207 213 139 136 149 160 157 159 154 140 128 122 128 133 132 138 147 152 156 158 159 162 166 168 169 164 154 151 154 156 154 155 159 158 149 136 119 104 93 87 68 41 25 18 17 14 11 10 8 8 8 5 5 5
72 69 75 124 147 159 194 242 234 226 235 222 101 135 246 266 92 91 58 67 248 239 110 142 208 253 283 274 227 204 183 171 178 198 179 150 159 168 161 159 156 146 145 152 157 152 148 155 163 163 161 162 164 167 167 164 160 157 152 153 160 165 160 159 160 154 144 138 137 143 137 121 61 27 23 20 17 13 9 7 6 7 6 4 4 4
94 72 33 72 126 150 170 198 226 278 234 174 175 201 195 85 71 95 90 127 194 161 219 225 213 274 284 255 218 207 189 175 171 177 190 175 163 164 160 154 153 151 160 166 165 160 159 163 166 163 160 161 163 165 165 162 159 160 160 158 162 169 166 161 158 152 150 162 162 160 161 138 49 26 24 22 18 12 6 5 6 6 5 3 3 2
97 76 357 38 74 92 90 16 301 318 34 130 4 219 186 167 128 126 159 216 156 106 255 261 237 268 267 238 199 198 193 189 183 181 191 189 173 164 152 146 152 161 171 174 169 166 164 165 165 161 160 163 163 162 161 158 157 162 168 167 168 172 167 160 159 160 167 176 174 172 171 143 53 31 26 22 16 8 5 5 4 4 4 3 2 0
93 96 267 117 87 42 58 13 299 319 20 336 291 245 212 183 175 185 210 223 181 166 227 249 352 247 253 257 223 199 187 194 198 192 187 175 162 158 151 153 166 175 180 182 179 174 168 167 166 162 164 168 167 165 164 161 163 167 170 171 173 172 165 163 169 174 176 181 182 181 174 135 48 29 25 16 10 8 5 3 2 3 3 1 359 360
107 110 253 145 115 306 310 304 282 62 10 295 259 239 231 211 203 210 231 235 219 235 253 279 301 273 254 243 255 254 207 179 171 161 161 161 163 164 163 171 182 187 187 186 185 179 174 173 169 167 169 172 172 172 171 170 173 175 173 174 173 168 168 175 179 178 181 186 185 181 168 127 44 21 16 9 9 8 3 1 2 1 359 359 358 360
104 106 269 100 79 313 307 301 309 67 42 277 269 258 240 230 229 233 245 248 238 262 271 286 293 282 259 214 234 247 178 125 112 151 169 173 169 167 172 181 187 191 192 192 185 178 179 176 170 169 174 177 178 178 175 174 176 177 176 177 175 172 176 182 180 181 187 189 184 178 168 133 33 353 357 9 9 4 1 2 1 355 355 358 358 360
83 109 258 57 54 293 291 321 339 19 26 285 274 258 225 211 216 219 216 202 192 216 235 235 266 270 252 176 183 203 152 165 207 205 199 199 180 172 181 188 189 190 191 189 182 176 179 175 170 174 179 180 180 180 177 176 177 178 179 179 178 178 181 183 183 187 191 188 182 178 178 198 277 317 356 10 3 358 1 1 355 351 353 357 358 359
95 126 164 101 101 275 295 329 335 356 3 295 264 234 204 198 201 203 213 209 199 186 174 205 233 238 205 163 165 188 194 208 223 216 208 207 191 185 191 192 191 192 188 185 181 178 180 177 176 180 183 182 183 182 182 183 182 181 181 181 180 181 183 185 187 191 191 187 185 186 194 220 254 297 349 359 354 354 360 354 348 348 352 355 358 358
124 131 131 106 113 279 293 321 358 349 288 255 261 208 180 193 195 199 219 217 200 192 202 233 240 203 171 176 182 193 201 205 212 212 206 198 186 189 197 194 191 189 183 182 180 178 178 178 180 184 184 184 184 182 184 186 182 181 182 182 183 184 185 188 190 193 193 190 192 200 206 221 241 270 318 338 349 355 352 343 342 348 351 353 358 358
148 117 67 61 86 261 297 3 22 279 236 223 284 356 167 192 186 201 235 239 207 208 226 246 248 220 195 194 191 184 186 187 197 209 209 199 185 184 192 195 190 184 182 182 177 175 176 176 177 179 180 181 181 179 180 180 179 180 183 184 185 186 188 191 192 194 196 195 201 210 215 223 231 241 280 320 343 348 339 333 337 346 349 352 357 356
130 131 110 69 32 325 358 73 182 251 254 162 49 317 326 57 132 181 261 261 220 207 215 232 241 232 213 207 197 169 155 156 204 238 226 215 196 182 186 192 187 181 181 180 175 175 178 180 180 178 177 177 177 177 179 180 181 182 182 184 187 188 191 193 194 197 199 201 209 217 221 226 229 232 258 301 326 327 322 324 333 342 346 350 356 356
90 121 117 50 23 117 311 244 238 289 315 335 301 252 187 165 161 158 256 268 230 203 201 220 237 237 222 209 187 145 118 71 327 273 226 212 207 192 188 190 186 181 181 180 180 182 184 185 183 179 177 176 176 179 181 181 183 182 181 185 189 190 193 195 197 200 204 208 216 220 223 226 229 233 243 261 291 306 310 317 331 338 343 350 355 356
13 127 130 131 204 95 56 321 312 322 302 276 265 232 190 193 197 167 117 297 272 229 204 213 232 236 216 190 163 138 121 148 284 269 217 199 201 188 177 182 181 178 176 172 173 176 178 180 180 178 177 176 176 182 183 181 182 182 183 187 190 192 196 197 199 204 208 213 219 222 223 226 230 235 240 253 279 300 305 315 330 337 344 353 353 351
14 15 97 106 157 116 111 194 253 251 251 246 237 229 209 181 163 105 26 307 286 297 224 211 229 233 200 171 158 141 134 201 250 262 221 193 191 176 158 155 158 162 166 167 169 169 170 173 174 173 175 175 176 182 184 182 183 184 186 191 194 196 199 200 202 207 212 216 220 223 226 229 231 236 243 260 280 293 303 316 332 340 347 353 350 347
40 349 65 147 206 182 164 219 243 250 261 239 207 205 192 141 109 76 10 281 260 311 318 214 234 236 188 160 157 158 172 204 232 254 219 170 169 169 160 150 145 150 156 162 167 168 166 168 168 168 173 178 180 183 184 183 185 188 191 194 197 201 205 205 205 210 216 217 218 223 230 233 234 241 252 264 275 285 302 320 332 339 347 350 349 347
42 323 144 162 212 197 187 233 264 263 263 222 171 174 162 119 81 109 220 237 247 289 283 234 254 250 179 158 170 188 196 200 207 228 140 127 136 151 154 152 150 152 157 162 164 164 164 167 171 173 179 184 184 185 186 185 188 192 194 197 203 207 208 207 207 212 215 218 220 226 233 235 238 246 255 261 270 285 302 318 330 337 343 346 347 347
163 190 141 148 199 195 185 208 287 284 265 152 123 126 134 126 164 209 214 218 229 264 271 255 258 250 177 171 191 195 184 176 165 146 125 127 135 139 142 145 144 146 153 159 162 165 165 166 172 176 180 186 189 189 189 190 192 194 194 200 208 210 207 206 209 213 216 220 224 229 234 237 240 246 254 261 269 282 296 312 326 332 338 342 344 344
168 161 183 195 187 166 146 152 283 281 251 142 121 101 146 185 203 208 213 248 232 238 255 253 255 248 181 186 200 178 157 163 156 141 133 134 136 138 144 149 149 150 155 158 162 170 169 167 173 179 182 188 193 193 192 194 196 197 199 206 211 208 206 209 211 214 218 222 226 231 235 237 240 246 254 263 270 278 290 306 319 325 331 338 340 339
185 168 181 205 189 144 144 201 220 225 208 173 157 172 206 206 191 165 160 226 245 225 207 215 257 262 204 185 186 169 161 166 162 150 140 138 138 141 149 155 155 157 162 164 167 172 174 173 177 181 185 191 195 196 198 200 200 201 205 211 211 207 208 211 212 215 220 223 227 233 235 235 239 247 255 262 268 274 283 298 312 320 326 334 336 336
223 194 175 199 208 183 184 213 223 206 191 199 207 212 207 208 186 156 160 193 244 218 196 190 233 252 235 185 171 171 180 178 174 169 152 147 153 155 157 163 165 165 168 170 172 174 178 181 182 182 187 195 199 201 204 206 207 208 210 212 211 209 211 212 213 217 221 225 229 232 234 235 237 245 254 260 266 272 281 294 307 315 322 330 333 333
241 186 132 189 258 266 253 235 225 216 209 218 231 240 234 228 213 176 182 221 229 202 188 182 196 214 224 200 175 184 201 182 168 175 167 152 155 160 162 166 170 171 171 173 176 179 182 185 185 186 190 197 203 207 209 212 214 215 216 214 212 214 216 215 216 220 222 226 230 232 233 235 238 243 251 257 262 268 277 291 303 311 318 324 327 328
242 160 151 215 262 278 278 261 231 218 219 219 232 252 258 249 231 195 192 219 215 189 190 201 191 187 204 211 194 195 202 179 163 173 172 156 157 165 166 168 172 176 178 180 183 185 185 184 186 189 194 201 207 210 213 217 219 221 222 219 217 218 219 218 220 223 224 227 231 232 232 235 239 243 248 254 260 265 272 284 296 304 312 319 323 323
221 150 165 213 209 206 253 267 259 246 243 234 228 241 255 252 239 219 208 206 193 180 187 195 184 176 194 210 202 194 196 184 174 178 177 171 173 173 174 176 178 181 185 188 190 190 189 189 189 192 199 207 211 213 217 220 222 222 223 223 223 222 220 221 222 224 227 229 232 233 234 235 239 243 248 252 257 261 270 282 294 302 310 317 321 318
133 144 181 196 208 261 281 275 271 283 284 265 241 229 235 242 240 232 219 199 188 188 190 195 200 195 193 197 192 188 196 198 186 178 177 180 180 181 184 186 186 187 190 193 195 198 197 196 196 199 206 213 216 217 220 223 224 224 223 225 227 225 223 223 223 225 228 230 232 234 234 234 237 242 248 252 256 259 266 279 292 300 306 312 316 317
136 182 192 157 194 263 261 235 215 244 272 265 247 230 229 231 232 230 219 201 203 208 201 202 218 218 209 206 198 188 199 209 194 181 180 187 189 189 191 191 190 193 197 198 201 205 205 205 205 207 213 218 220 221 224 225 225 226 226 227 228 229 227 225 223 224 227 229 232 235 235 235 236 239 243 250 255 258 262 270 280 287 296 306 312 317
186 191 177 172 214 245 238 207 182 193 246 262 253 231 225 214 204 216 223 214 213 213 200 196 211 220 221 219 208 199 204 211 196 183 183 195 198 196 195 194 194 197 201 203 204 208 209 210 211 213 217 220 221 223 227 229 228 228 227 228 229 231 231 228 225 225 228 231 233 237 238 238 239 240 242 247 251 255 260 266 272 278 289 300 308 315